Year,Month,Day,Hour,Minute,Value (Times are PST for temperature in C)
2008,10,01,00,00,12.30
2008,10,01,00,01,12.30
2008,10,01,00,02,12.30
2008,10,01,00,03,12.30
2008,10,01,00,04,12.30
2008,10,01,00,05,12.30
2008,10,01,00,06,12.30
2008,10,01,00,07,12.30
2008,10,01,00,08,12.30
2008,10,01,00,09,12.30
2008,10,01,00,10,12.30
2008,10,01,00,11,12.30
2008,10,01,00,12,12.30
2008,10,01,01,02,11.70
2008,10,01,01,03,11.60
2008,10,01,01,04,11.60
2008,10,01,01,05,11.60
2008,10,01,01,06,11.60
2008,10,01,01,07,11.60
2008,10,01,01,08,11.60
2008,10,01,01,09,11.60
2008,10,01,01,10,11.60
2008,10,01,01,11,11.60
2008,10,01,01,12,11.60
2008,10,01,01,13,11.40
2008,10,01,01,14,11.40
2008,10,01,01,15,11.40
2008,10,01,01,16,11.40
2008,10,01,01,17,11.40
2008,10,01,01,18,11.40
2008,10,01,01,19,11.40
2008,10,01,01,20,11.40
2008,10,01,01,21,11.40
2008,10,01,01,22,11.40
2008,10,01,01,23,11.40
2008,10,01,01,24,11.40
2008,10,01,01,25,11.40
2008,10,01,01,26,11.40
2008,10,01,01,27,11.40
2008,10,01,01,28,11.40
2008,10,01,01,29,11.40
2008,10,01,01,30,11.40
2008,10,01,01,31,11.30
2008,10,01,01,32,11.30
2008,10,01,01,33,11.30
2008,10,01,01,34,11.30
2008,10,01,01,35,11.30
2008,10,01,01,36,11.30
2008,10,01,01,37,11.30
2008,10,01,01,38,11.30
2008,10,01,01,39,11.30
2008,10,01,01,40,11.30
2008,10,01,01,41,11.30
2008,10,01,01,42,11.30
2008,10,01,01,43,11.30
2008,10,01,01,44,11.30
2008,10,01,01,45,11.30
2008,10,01,01,46,11.30
2008,10,01,01,47,11.30
2008,10,01,01,48,11.30
2008,10,01,01,49,11.30
2008,10,01,01,50,11.30
2008,10,01,01,51,11.30
2008,10,01,01,52,11.30
2008,10,01,01,53,11.30
2008,10,01,01,54,11.30
2008,10,01,01,55,11.30
2008,10,01,01,56,11.30
2008,10,01,01,57,11.30
2008,10,01,01,58,11.30
2008,10,01,01,59,11.30
2008,10,01,02,00,11.30
2008,10,01,02,01,11.30
2008,10,01,02,02,11.20
2008,10,01,02,03,11.20
2008,10,01,02,04,11.20
2008,10,01,02,05,11.20
2008,10,01,02,06,11.20
2008,10,01,02,07,11.20
2008,10,01,02,08,11.20
2008,10,01,02,09,11.20
2008,10,01,02,10,11.20
2008,10,01,02,11,11.20
2008,10,01,02,12,11.20
2008,10,01,02,13,11.20
2008,10,01,02,14,11.20
2008,10,01,02,15,11.20
2008,10,01,02,16,11.20
2008,10,01,02,17,11.20
2008,10,01,02,18,11.20
2008,10,01,02,19,11.20
2008,10,01,02,20,11.20
2008,10,01,02,21,11.20
2008,10,01,02,22,11.20
2008,10,01,02,23,11.20
2008,10,01,02,24,11.20
2008,10,01,02,25,11.20
2008,10,01,02,26,11.20
2008,10,01,02,27,11.20
2008,10,01,02,28,11.20
2008,10,01,02,29,11.20
2008,10,01,02,30,11.20
2008,10,01,02,31,11.10
2008,10,01,02,32,11.10
2008,10,01,02,33,11.10
2008,10,01,02,34,11.10
2008,10,01,02,35,11.10
2008,10,01,02,36,11.10
2008,10,01,02,37,11.10
2008,10,01,02,38,11.10
2008,10,01,02,39,11.10
2008,10,01,02,40,11.10
2008,10,01,02,41,11.10
2008,10,01,02,42,11.10
2008,10,01,02,43,11.10
2008,10,01,02,44,11.10
2008,10,01,02,45,11.10
2008,10,01,02,46,11.10
2008,10,01,02,47,11.10
2008,10,01,02,48,11.00
2008,10,01,02,49,10.90
2008,10,01,02,50,10.90
2008,10,01,02,51,10.90
2008,10,01,02,52,10.90
2008,10,01,02,53,10.90
2008,10,01,02,54,10.90
2008,10,01,02,55,10.90
2008,10,01,02,56,10.90
2008,10,01,02,57,10.90
2008,10,01,02,58,10.90
2008,10,01,02,59,10.90
2008,10,01,03,00,10.90
2008,10,01,03,01,10.90
2008,10,01,03,02,10.90
2008,10,01,03,03,10.90
2008,10,01,03,04,10.90
2008,10,01,03,05,10.90
2008,10,01,03,06,10.80
2008,10,01,03,07,10.80
2008,10,01,03,08,10.80
2008,10,01,03,09,10.80
2008,10,01,03,10,10.80
2008,10,01,03,11,10.80
2008,10,01,03,12,10.80
2008,10,01,03,13,10.70
2008,10,01,03,14,10.70
2008,10,01,03,15,10.70
2008,10,01,03,16,10.70
2008,10,01,03,17,10.70
2008,10,01,03,18,10.70
2008,10,01,03,19,10.70
2008,10,01,03,20,10.60
2008,10,01,03,21,10.60
2008,10,01,03,22,10.60
2008,10,01,03,23,10.60
2008,10,01,03,24,10.60
2008,10,01,03,25,10.60
2008,10,01,03,26,10.60
2008,10,01,03,27,10.60
2008,10,01,03,28,10.60
2008,10,01,03,29,10.60
2008,10,01,03,30,10.60
2008,10,01,03,31,10.60
2008,10,01,03,32,10.50
2008,10,01,03,33,10.40
2008,10,01,03,34,10.40
2008,10,01,03,35,10.40
2008,10,01,03,36,10.40
2008,10,01,03,37,10.40
2008,10,01,03,38,10.40
2008,10,01,03,39,10.40
2008,10,01,03,40,10.40
2008,10,01,03,41,10.40
2008,10,01,03,42,10.30
2008,10,01,03,43,10.30
2008,10,01,03,44,10.30
2008,10,01,03,45,10.30
2008,10,01,03,46,10.30
2008,10,01,03,47,10.30
2008,10,01,03,48,10.30
2008,10,01,03,49,10.30
2008,10,01,03,50,10.30
2008,10,01,03,51,10.20
2008,10,01,03,52,10.20
2008,10,01,03,53,10.20
2008,10,01,03,54,10.20
2008,10,01,03,55,10.20
2008,10,01,03,56,10.20
2008,10,01,03,57,10.20
2008,10,01,03,58,10.20
2008,10,01,03,59,10.20
2008,10,01,04,00,10.10
2008,10,01,04,01,10.10
2008,10,01,04,02,10.10
2008,10,01,04,03,10.10
2008,10,01,04,04,10.10
2008,10,01,04,05,10.10
2008,10,01,04,06,10.10
2008,10,01,04,07,10.10
2008,10,01,04,08,10.10
2008,10,01,04,09,10.10
2008,10,01,04,10,10.10
2008,10,01,04,11,10.10
2008,10,01,04,12,10.10
2008,10,01,04,13,10.10
2008,10,01,04,14,10.10
2008,10,01,04,15,10.10
2008,10,01,04,16,10.10
2008,10,01,04,17,10.00
2008,10,01,04,18,9.90
2008,10,01,04,19,9.90
2008,10,01,04,20,9.90
2008,10,01,04,21,9.90
2008,10,01,04,22,9.90
2008,10,01,04,23,9.90
2008,10,01,04,24,9.90
2008,10,01,04,25,9.90
2008,10,01,04,26,9.90
2008,10,01,04,27,9.90
2008,10,01,04,28,9.90
2008,10,01,04,29,9.90
2008,10,01,04,30,9.90
2008,10,01,04,31,9.90
2008,10,01,04,32,9.90
2008,10,01,04,33,9.90
2008,10,01,04,34,9.80
2008,10,01,04,35,9.80
2008,10,01,04,36,9.80
2008,10,01,04,37,9.80
2008,10,01,04,38,9.80
2008,10,01,04,39,9.80
2008,10,01,04,40,9.80
2008,10,01,04,41,9.80
2008,10,01,04,42,9.80
2008,10,01,04,43,9.70
2008,10,01,04,44,9.70
2008,10,01,04,45,9.70
2008,10,01,04,46,9.70
2008,10,01,04,47,9.70
2008,10,01,04,48,9.70
2008,10,01,04,49,9.70
2008,10,01,04,50,9.70
2008,10,01,04,51,9.70
2008,10,01,04,52,9.70
2008,10,01,04,53,9.70
2008,10,01,04,54,9.60
2008,10,01,04,55,9.60
2008,10,01,04,56,9.60
2008,10,01,04,57,9.60
2008,10,01,04,58,9.60
2008,10,01,04,59,9.60
2008,10,01,05,00,9.60
2008,10,01,05,01,9.60
2008,10,01,05,02,9.60
2008,10,01,05,03,9.60
2008,10,01,05,04,9.60
2008,10,01,05,05,9.60
2008,10,01,05,06,9.60
2008,10,01,05,07,9.60
2008,10,01,05,08,9.60
2008,10,01,05,09,9.50
2008,10,01,05,10,9.50
2008,10,01,05,11,9.50
2008,10,01,05,12,9.50
2008,10,01,05,13,9.50
2008,10,01,05,14,9.50
2008,10,01,05,15,9.50
2008,10,01,05,16,9.50
2008,10,01,05,17,9.50
2008,10,01,05,18,9.50
2008,10,01,05,19,9.50
2008,10,01,05,20,9.50
2008,10,01,05,21,9.40
2008,10,01,05,22,9.40
2008,10,01,05,23,9.40
2008,10,01,05,24,9.40
2008,10,01,05,25,9.40
2008,10,01,05,26,9.40
2008,10,01,05,27,9.40
2008,10,01,05,28,9.40
2008,10,01,05,29,9.40
2008,10,01,05,30,9.40
2008,10,01,05,31,9.40
2008,10,01,05,32,9.40
2008,10,01,05,33,9.40
2008,10,01,05,34,9.40
2008,10,01,05,35,9.40
2008,10,01,05,36,9.40
2008,10,01,05,37,9.40
2008,10,01,05,38,9.40
2008,10,01,05,39,9.30
2008,10,01,05,40,9.30
2008,10,01,05,41,9.30
2008,10,01,05,42,9.30
2008,10,01,05,43,9.30
2008,10,01,05,44,9.30
2008,10,01,05,45,9.30
2008,10,01,05,46,9.30
2008,10,01,05,47,9.30
2008,10,01,05,48,9.30
2008,10,01,05,49,9.30
2008,10,01,05,50,9.30
2008,10,01,05,51,9.30
2008,10,01,05,52,9.30
2008,10,01,05,53,9.30
2008,10,01,05,54,9.20
2008,10,01,05,55,9.20
2008,10,01,05,56,9.20
2008,10,01,05,57,9.20
2008,10,01,05,58,9.20
2008,10,01,05,59,9.20
2008,10,01,06,00,9.20
2008,10,01,06,01,9.20
2008,10,01,06,02,9.20
2008,10,01,06,03,9.20
2008,10,01,06,04,9.20
2008,10,01,06,05,9.20
2008,10,01,06,06,9.20
2008,10,01,06,07,9.20
2008,10,01,06,08,9.20
2008,10,01,06,09,9.20
2008,10,01,06,10,9.20
2008,10,01,06,11,9.20
2008,10,01,06,12,9.20
2008,10,01,06,13,9.20
2008,10,01,06,14,9.20
2008,10,01,06,15,9.20
2008,10,01,06,16,9.20
2008,10,01,06,17,9.20
2008,10,01,06,18,9.20
2008,10,01,06,19,9.20
2008,10,01,06,20,9.20
2008,10,01,06,21,9.20
2008,10,01,06,22,9.20
2008,10,01,06,23,9.20
2008,10,01,06,24,9.20
2008,10,01,06,25,9.20
2008,10,01,06,26,9.20
2008,10,01,06,27,9.20
2008,10,01,06,28,9.20
2008,10,01,06,29,9.20
2008,10,01,06,30,9.20
2008,10,01,06,31,9.20
2008,10,01,06,32,9.20
2008,10,01,06,33,9.20
2008,10,01,06,34,9.20
2008,10,01,06,35,9.20
2008,10,01,06,36,9.20
2008,10,01,06,37,9.20
2008,10,01,06,38,9.20
2008,10,01,06,39,9.20
2008,10,01,06,40,9.10
2008,10,01,06,41,9.10
2008,10,01,06,42,9.10
2008,10,01,06,43,9.20
2008,10,01,06,44,9.20
2008,10,01,06,45,9.20
2008,10,01,06,46,9.10
2008,10,01,06,47,9.10
2008,10,01,06,48,9.10
2008,10,01,06,49,9.10
2008,10,01,06,50,9.10
2008,10,01,06,51,9.10
2008,10,01,06,52,9.10
2008,10,01,06,53,9.10
2008,10,01,06,54,9.10
2008,10,01,06,55,9.10
2008,10,01,06,56,9.10
2008,10,01,06,57,9.10
2008,10,01,06,58,9.10
2008,10,01,06,59,9.10
2008,10,01,07,00,9.10
2008,10,01,07,01,9.10
2008,10,01,07,02,9.10
2008,10,01,07,03,9.10
2008,10,01,07,04,9.10
2008,10,01,07,05,9.20
2008,10,01,07,06,9.20
2008,10,01,07,07,9.20
2008,10,01,07,08,9.20
2008,10,01,07,09,9.20
2008,10,01,07,10,9.20
2008,10,01,07,11,9.20
2008,10,01,07,12,9.10
2008,10,01,07,13,9.10
2008,10,01,07,14,9.10
2008,10,01,07,15,9.10
2008,10,01,07,16,9.10
2008,10,01,07,17,9.10
2008,10,01,07,18,9.10
2008,10,01,07,19,9.10
2008,10,01,07,20,9.10
2008,10,01,07,21,9.10
2008,10,01,07,22,9.10
2008,10,01,07,23,9.10
2008,10,01,07,24,9.10
2008,10,01,07,25,9.10
2008,10,01,07,26,9.10
2008,10,01,07,27,9.10
2008,10,01,07,28,9.10
2008,10,01,07,29,9.10
2008,10,01,07,30,9.10
2008,10,01,07,31,9.10
2008,10,01,07,32,9.20
2008,10,01,07,33,9.20
2008,10,01,07,34,9.20
2008,10,01,07,35,9.20
2008,10,01,07,36,9.20
2008,10,01,07,37,9.20
2008,10,01,07,38,9.20
2008,10,01,07,39,9.20
2008,10,01,07,40,9.20
2008,10,01,07,41,9.20
2008,10,01,07,42,9.20
2008,10,01,07,43,9.20
2008,10,01,07,44,9.20
2008,10,01,07,45,9.20
2008,10,01,07,46,9.20
2008,10,01,07,47,9.20
2008,10,01,07,48,9.20
2008,10,01,07,49,9.20
2008,10,01,07,50,9.20
2008,10,01,07,51,9.20
2008,10,01,07,52,9.20
2008,10,01,07,53,9.20
2008,10,01,07,54,9.20
2008,10,01,07,55,9.20
2008,10,01,07,56,9.20
2008,10,01,07,57,9.20
2008,10,01,07,58,9.20
2008,10,01,07,59,9.20
2008,10,01,08,00,9.20
2008,10,01,08,01,9.20
2008,10,01,08,02,9.20
2008,10,01,08,03,9.20
2008,10,01,08,04,9.20
2008,10,01,08,05,9.30
2008,10,01,08,06,9.30
2008,10,01,08,07,9.30
2008,10,01,08,08,9.30
2008,10,01,08,09,9.30
2008,10,01,08,10,9.30
2008,10,01,08,11,9.30
2008,10,01,08,12,9.30
2008,10,01,08,13,9.40
2008,10,01,08,14,9.40
2008,10,01,08,15,9.40
2008,10,01,08,16,9.40
2008,10,01,08,17,9.40
2008,10,01,08,18,9.40
2008,10,01,08,19,9.50
2008,10,01,08,20,9.50
2008,10,01,08,21,9.50
2008,10,01,08,22,9.50
2008,10,01,08,23,9.60
2008,10,01,08,24,9.60
2008,10,01,08,25,9.60
2008,10,01,08,26,9.60
2008,10,01,08,27,9.60
2008,10,01,08,28,9.70
2008,10,01,08,29,9.70
2008,10,01,08,30,9.70
2008,10,01,08,31,9.70
2008,10,01,08,32,9.70
2008,10,01,08,33,9.70
2008,10,01,08,34,9.80
2008,10,01,08,35,9.80
2008,10,01,08,36,9.80
2008,10,01,08,37,9.90
2008,10,01,08,38,9.90
2008,10,01,08,39,9.90
2008,10,01,08,40,9.90
2008,10,01,08,41,9.90
2008,10,01,08,42,9.90
2008,10,01,08,43,9.90
2008,10,01,08,44,10.00
2008,10,01,08,45,10.10
2008,10,01,08,46,10.10
2008,10,01,08,47,10.20
2008,10,01,08,48,10.30
2008,10,01,08,49,10.40
2008,10,01,08,50,10.40
2008,10,01,08,51,10.60
2008,10,01,08,52,10.60
2008,10,01,08,53,10.70
2008,10,01,08,54,10.80
2008,10,01,08,55,10.90
2008,10,01,08,56,10.90
2008,10,01,08,57,11.10
2008,10,01,08,58,11.10
2008,10,01,08,59,11.10
2008,10,01,09,00,11.20
2008,10,01,09,01,11.30
2008,10,01,09,02,11.30
2008,10,01,09,03,11.40
2008,10,01,09,04,11.50
2008,10,01,09,05,11.60
2008,10,01,09,06,11.70
2008,10,01,09,07,11.80
2008,10,01,09,08,11.90
2008,10,01,09,09,11.90
2008,10,01,09,10,12.00
2008,10,01,09,11,12.10
2008,10,01,09,12,12.20
2008,10,01,09,13,12.30
2008,10,01,09,14,12.40
2008,10,01,09,15,12.50
2008,10,01,09,16,12.70
2008,10,01,09,17,12.80
2008,10,01,09,18,12.90
2008,10,01,09,19,13.00
2008,10,01,09,20,13.10
2008,10,01,09,21,13.20
2008,10,01,09,22,13.30
2008,10,01,09,23,13.30
2008,10,01,09,24,13.50
2008,10,01,09,25,13.60
2008,10,01,09,26,13.60
2008,10,01,09,27,13.70
2008,10,01,09,28,13.90
2008,10,01,09,29,13.90
2008,10,01,09,30,14.00
2008,10,01,09,31,14.00
2008,10,01,09,32,14.10
2008,10,01,09,33,14.10
2008,10,01,09,34,14.20
2008,10,01,09,35,14.20
2008,10,01,09,36,14.30
2008,10,01,09,37,14.40
2008,10,01,09,38,14.40
2008,10,01,09,39,14.50
2008,10,01,09,40,14.50
2008,10,01,09,41,14.50
2008,10,01,09,42,14.60
2008,10,01,09,43,14.60
2008,10,01,09,44,14.80
2008,10,01,09,45,14.90
2008,10,01,09,46,15.00
2008,10,01,09,47,15.10
2008,10,01,09,48,15.20
2008,10,01,09,49,15.30
2008,10,01,09,50,15.30
2008,10,01,09,51,15.30
2008,10,01,09,52,15.30
2008,10,01,09,53,15.20
2008,10,01,09,54,15.20
2008,10,01,09,55,15.10
2008,10,01,09,56,15.00
2008,10,01,09,57,14.90
2008,10,01,09,58,14.90
2008,10,01,09,59,14.80
2008,10,01,10,00,14.80
2008,10,01,10,01,14.80
2008,10,01,10,02,14.80
2008,10,01,10,03,14.70
2008,10,01,10,04,14.70
2008,10,01,10,05,14.70
2008,10,01,10,06,14.60
2008,10,01,10,07,14.60
2008,10,01,10,08,14.60
2008,10,01,10,09,14.70
2008,10,01,10,10,14.70
2008,10,01,10,11,14.70
2008,10,01,10,12,14.70
2008,10,01,10,13,14.80
2008,10,01,10,14,14.80
2008,10,01,10,15,14.80
2008,10,01,10,16,14.90
2008,10,01,10,17,15.00
2008,10,01,10,18,15.00
2008,10,01,10,19,15.10
2008,10,01,10,20,15.20
2008,10,01,10,21,15.30
2008,10,01,10,22,15.30
2008,10,01,10,23,15.30
2008,10,01,10,24,15.40
2008,10,01,10,25,15.40
2008,10,01,10,26,15.50
2008,10,01,10,27,15.60
2008,10,01,10,28,15.80
2008,10,01,10,29,15.90
2008,10,01,10,30,16.10
2008,10,01,10,31,16.30
2008,10,01,10,32,16.30
2008,10,01,10,33,16.30
2008,10,01,10,34,16.10
2008,10,01,10,35,16.00
2008,10,01,10,36,15.80
2008,10,01,10,37,15.70
2008,10,01,10,38,15.60
2008,10,01,10,39,15.50
2008,10,01,10,40,15.40
2008,10,01,10,41,15.30
2008,10,01,10,42,15.30
2008,10,01,10,43,15.30
2008,10,01,10,44,15.30
2008,10,01,10,45,15.30
2008,10,01,10,46,15.40
2008,10,01,10,47,15.40
2008,10,01,10,48,15.40
2008,10,01,10,49,15.30
2008,10,01,10,50,15.30
2008,10,01,10,51,15.30
2008,10,01,10,52,15.30
2008,10,01,10,53,15.30
2008,10,01,10,54,15.30
2008,10,01,10,55,15.30
2008,10,01,10,56,15.30
2008,10,01,10,57,15.30
2008,10,01,10,58,15.30
2008,10,01,10,59,15.30
2008,10,01,11,00,15.30
2008,10,01,11,01,15.30
2008,10,01,11,02,15.30
2008,10,01,11,03,15.30
2008,10,01,11,04,15.30
2008,10,01,11,05,15.30
2008,10,01,11,06,15.40
2008,10,01,11,07,15.40
2008,10,01,11,08,15.50
2008,10,01,11,09,15.50
2008,10,01,11,10,15.50
2008,10,01,11,11,15.40
2008,10,01,11,12,15.40
2008,10,01,11,13,15.40
2008,10,01,11,14,15.40
2008,10,01,11,15,15.50
2008,10,01,11,16,15.50
2008,10,01,11,17,15.60
2008,10,01,11,18,15.70
2008,10,01,11,19,15.70
2008,10,01,11,20,15.80
2008,10,01,11,21,15.80
2008,10,01,11,22,15.80
2008,10,01,11,23,15.90
2008,10,01,11,24,15.90
2008,10,01,11,25,15.90
2008,10,01,11,26,15.90
2008,10,01,11,27,16.00
2008,10,01,11,28,16.10
2008,10,01,11,29,16.10
2008,10,01,11,30,16.10
2008,10,01,11,31,16.10
2008,10,01,11,32,16.10
2008,10,01,11,33,16.10
2008,10,01,11,34,16.20
2008,10,01,11,35,16.20
2008,10,01,11,36,16.20
2008,10,01,11,37,16.10
2008,10,01,11,38,16.10
2008,10,01,11,39,16.10
2008,10,01,11,40,16.00
2008,10,01,11,41,15.90
2008,10,01,11,42,15.90
2008,10,01,11,43,15.90
2008,10,01,11,44,15.80
2008,10,01,11,45,15.80
2008,10,01,11,46,15.70
2008,10,01,11,47,15.50
2008,10,01,11,48,15.40
2008,10,01,11,49,15.20
2008,10,01,11,50,15.00
2008,10,01,11,51,14.90
2008,10,01,11,52,14.80
2008,10,01,11,53,14.80
2008,10,01,11,54,14.80
2008,10,01,11,55,14.90
2008,10,01,11,56,15.00
2008,10,01,11,57,15.10
2008,10,01,11,58,15.20
2008,10,01,11,59,15.30
2008,10,01,12,00,15.50
2008,10,01,12,01,15.60
2008,10,01,12,02,15.80
2008,10,01,12,03,15.90
2008,10,01,12,04,16.00
2008,10,01,12,05,15.90
2008,10,01,12,06,15.90
2008,10,01,12,07,15.80
2008,10,01,12,08,15.70
2008,10,01,12,09,15.70
2008,10,01,12,10,15.70
2008,10,01,12,11,15.70
2008,10,01,12,12,15.70
2008,10,01,12,13,15.70
2008,10,01,12,14,15.70
2008,10,01,12,15,15.70
2008,10,01,12,16,15.70
2008,10,01,12,17,15.80
2008,10,01,12,18,15.80
2008,10,01,12,19,15.90
2008,10,01,12,20,15.90
2008,10,01,12,21,15.90
2008,10,01,12,22,15.90
2008,10,01,12,23,16.00
2008,10,01,12,24,16.10
2008,10,01,12,25,16.10
2008,10,01,12,26,16.10
2008,10,01,12,27,16.10
2008,10,01,12,28,16.10
2008,10,01,12,29,16.10
2008,10,01,12,30,16.20
2008,10,01,12,31,16.20
2008,10,01,12,32,16.20
2008,10,01,12,33,16.20
2008,10,01,12,34,16.20
2008,10,01,12,35,16.20
2008,10,01,12,36,16.20
2008,10,01,12,37,16.10
2008,10,01,12,38,16.10
2008,10,01,12,39,16.10
2008,10,01,12,40,16.10
2008,10,01,12,41,16.10
2008,10,01,12,42,16.10
2008,10,01,12,43,16.10
2008,10,01,12,44,16.20
2008,10,01,12,45,16.20
2008,10,01,12,46,16.30
2008,10,01,12,47,16.30
2008,10,01,12,48,16.30
2008,10,01,12,49,16.30
2008,10,01,12,50,16.40
2008,10,01,12,51,16.40
2008,10,01,12,52,16.40
2008,10,01,12,53,16.30
2008,10,01,12,54,16.20
2008,10,01,12,55,16.30
2008,10,01,12,56,16.30
2008,10,01,12,57,16.30
2008,10,01,12,58,16.40
2008,10,01,12,59,16.30
2008,10,01,13,00,16.20
2008,10,01,13,01,16.20
2008,10,01,13,02,16.10
2008,10,01,13,03,16.10
2008,10,01,13,04,15.90
2008,10,01,13,05,16.00
2008,10,01,13,06,16.10
2008,10,01,13,07,16.10
2008,10,01,13,08,16.10
2008,10,01,13,09,16.10
2008,10,01,13,10,16.10
2008,10,01,13,11,16.20
2008,10,01,13,12,16.30
2008,10,01,13,13,16.40
2008,10,01,13,14,16.50
2008,10,01,13,15,16.60
2008,10,01,13,16,16.70
2008,10,01,13,17,16.70
2008,10,01,13,18,16.70
2008,10,01,13,19,16.70
2008,10,01,13,20,16.60
2008,10,01,13,21,16.40
2008,10,01,13,22,16.40
2008,10,01,13,23,16.50
2008,10,01,13,24,16.70
2008,10,01,13,25,16.70
2008,10,01,13,26,16.70
2008,10,01,13,27,16.70
2008,10,01,13,28,16.60
2008,10,01,13,29,16.60
2008,10,01,13,30,16.60
2008,10,01,13,31,16.60
2008,10,01,13,32,16.60
2008,10,01,13,33,16.60
2008,10,01,13,34,16.50
2008,10,01,13,35,16.40
2008,10,01,13,36,16.40
2008,10,01,13,37,16.30
2008,10,01,13,38,16.20
2008,10,01,13,39,16.10
2008,10,01,13,40,16.10
2008,10,01,13,41,16.00
2008,10,01,13,42,15.90
2008,10,01,13,43,15.90
2008,10,01,13,44,15.90
2008,10,01,13,45,16.00
2008,10,01,13,46,16.10
2008,10,01,13,47,16.10
2008,10,01,13,48,16.10
2008,10,01,13,49,16.10
2008,10,01,13,50,16.10
2008,10,01,13,51,16.10
2008,10,01,13,52,16.10
2008,10,01,13,53,16.10
2008,10,01,13,54,16.10
2008,10,01,13,55,16.10
2008,10,01,13,56,16.20
2008,10,01,13,57,16.20
2008,10,01,13,58,16.20
2008,10,01,13,59,16.10
2008,10,01,14,00,16.00
2008,10,01,14,01,15.90
2008,10,01,14,02,15.80
2008,10,01,14,03,15.80
2008,10,01,14,04,15.70
2008,10,01,14,05,15.60
2008,10,01,14,06,15.60
2008,10,01,14,07,15.50
2008,10,01,14,08,15.60
2008,10,01,14,09,15.50
2008,10,01,14,10,15.50
2008,10,01,14,11,15.40
2008,10,01,14,12,15.30
2008,10,01,14,13,15.20
2008,10,01,14,14,15.00
2008,10,01,14,15,14.90
2008,10,01,14,16,14.80
2008,10,01,14,17,14.80
2008,10,01,14,18,14.80
2008,10,01,14,19,14.70
2008,10,01,14,20,14.80
2008,10,01,14,21,14.80
2008,10,01,14,22,14.80
2008,10,01,14,23,14.80
2008,10,01,14,24,14.80
2008,10,01,14,25,14.90
2008,10,01,14,26,15.00
2008,10,01,14,27,15.10
2008,10,01,14,28,15.20
2008,10,01,14,29,15.20
2008,10,01,14,30,15.10
2008,10,01,14,31,15.00
2008,10,01,14,32,14.90
2008,10,01,14,33,14.80
2008,10,01,14,34,14.70
2008,10,01,14,35,14.60
2008,10,01,14,36,14.50
2008,10,01,14,37,14.40
2008,10,01,14,38,14.40
2008,10,01,14,39,14.30
2008,10,01,14,40,14.30
2008,10,01,14,41,14.30
2008,10,01,14,42,14.30
2008,10,01,14,43,14.20
2008,10,01,14,44,14.10
2008,10,01,14,45,14.00
2008,10,01,14,46,14.00
2008,10,01,14,47,13.90
2008,10,01,14,48,13.90
2008,10,01,14,49,13.90
2008,10,01,14,50,13.90
2008,10,01,14,51,14.00
2008,10,01,14,52,14.00
2008,10,01,14,53,14.10
2008,10,01,14,54,14.20
2008,10,01,14,55,14.30
2008,10,01,14,56,14.40
2008,10,01,14,57,14.60
2008,10,01,14,58,14.70
2008,10,01,14,59,14.90
2008,10,01,15,00,15.10
2008,10,01,15,01,15.10
2008,10,01,15,02,15.30
2008,10,01,15,03,15.40
2008,10,01,15,04,15.50
2008,10,01,15,05,15.60
2008,10,01,15,06,15.60
2008,10,01,15,07,15.60
2008,10,01,15,08,15.60
2008,10,01,15,09,15.60
2008,10,01,15,10,15.50
2008,10,01,15,11,15.50
2008,10,01,15,12,15.50
2008,10,01,15,13,15.50
2008,10,01,15,14,15.50
2008,10,01,15,15,15.50
2008,10,01,15,16,15.40
2008,10,01,15,17,15.30
2008,10,01,15,18,15.30
2008,10,01,15,19,15.30
2008,10,01,15,20,15.30
2008,10,01,15,21,15.40
2008,10,01,15,22,15.40
2008,10,01,15,23,15.50
2008,10,01,15,24,15.60
2008,10,01,15,25,15.70
2008,10,01,15,26,15.80
2008,10,01,15,27,15.80
2008,10,01,15,28,15.90
2008,10,01,15,29,15.90
2008,10,01,15,30,15.90
2008,10,01,15,31,15.90
2008,10,01,15,32,15.80
2008,10,01,15,33,15.80
2008,10,01,15,34,15.80
2008,10,01,15,35,15.80
2008,10,01,15,36,15.80
2008,10,01,15,37,15.70
2008,10,01,15,38,15.60
2008,10,01,15,39,15.60
2008,10,01,15,40,15.50
2008,10,01,15,41,15.50
2008,10,01,15,42,15.40
2008,10,01,15,43,15.30
2008,10,01,15,44,15.30
2008,10,01,15,45,15.20
2008,10,01,15,46,15.20
2008,10,01,15,47,15.20
2008,10,01,15,48,15.20
2008,10,01,15,49,15.20
2008,10,01,15,50,15.20
2008,10,01,15,51,15.30
2008,10,01,15,52,15.30
2008,10,01,15,53,15.50
2008,10,01,15,54,15.50
2008,10,01,15,55,15.60
2008,10,01,15,56,15.80
2008,10,01,15,57,15.80
2008,10,01,15,58,15.80
2008,10,01,15,59,15.90
2008,10,01,16,00,15.90
2008,10,01,16,01,15.90
2008,10,01,16,02,15.90
2008,10,01,16,03,15.90
2008,10,01,16,04,16.00
2008,10,01,16,05,16.10
2008,10,01,16,06,16.10
2008,10,01,16,07,16.10
2008,10,01,16,08,16.10
2008,10,01,16,09,16.10
2008,10,01,16,10,16.10
2008,10,01,16,11,16.10
2008,10,01,16,12,16.10
2008,10,01,16,13,16.10
2008,10,01,16,14,16.20
2008,10,01,16,15,16.20
2008,10,01,16,16,16.10
2008,10,01,16,17,16.10
2008,10,01,16,18,16.10
2008,10,01,16,19,16.10
2008,10,01,16,20,16.10
2008,10,01,16,21,16.10
2008,10,01,16,22,16.10
2008,10,01,16,23,16.10
2008,10,01,16,24,16.10
2008,10,01,16,25,16.10
2008,10,01,16,26,16.10
2008,10,01,16,27,16.10
2008,10,01,16,28,16.10
2008,10,01,16,29,16.10
2008,10,01,16,30,16.10
2008,10,01,16,31,16.10
2008,10,01,16,32,16.10
2008,10,01,16,33,16.10
2008,10,01,16,34,16.20
2008,10,01,16,35,16.20
2008,10,01,16,36,16.20
2008,10,01,16,37,16.20
2008,10,01,16,38,16.30
2008,10,01,16,39,16.30
2008,10,01,16,40,16.30
2008,10,01,16,41,16.40
2008,10,01,16,42,16.40
2008,10,01,16,43,16.40
2008,10,01,16,44,16.40
2008,10,01,16,45,16.50
2008,10,01,16,46,16.60
2008,10,01,16,47,16.60
2008,10,01,16,48,16.60
2008,10,01,16,49,16.60
2008,10,01,16,50,16.60
2008,10,01,16,51,16.60
2008,10,01,16,52,16.60
2008,10,01,16,53,16.60
2008,10,01,16,54,16.60
2008,10,01,16,55,16.50
2008,10,01,16,56,16.40
2008,10,01,16,57,16.40
2008,10,01,16,58,16.40
2008,10,01,16,59,16.40
2008,10,01,17,00,16.40
2008,10,01,17,01,16.40
2008,10,01,17,02,16.40
2008,10,01,17,03,16.40
2008,10,01,17,04,16.40
2008,10,01,17,05,16.40
2008,10,01,17,06,16.40
2008,10,01,17,07,16.40
2008,10,01,17,08,16.40
2008,10,01,17,09,16.40
2008,10,01,17,10,16.50
2008,10,01,17,11,16.50
2008,10,01,17,12,16.40
2008,10,01,17,13,16.40
2008,10,01,17,14,16.40
2008,10,01,17,15,16.30
2008,10,01,17,16,16.30
2008,10,01,17,17,16.30
2008,10,01,17,18,16.30
2008,10,01,17,19,16.30
2008,10,01,17,20,16.30
2008,10,01,17,21,16.30
2008,10,01,17,22,16.30
2008,10,01,17,23,16.30
2008,10,01,17,24,16.30
2008,10,01,17,25,16.30
2008,10,01,17,26,16.20
2008,10,01,17,27,16.10
2008,10,01,17,28,16.10
2008,10,01,17,29,16.10
2008,10,01,17,30,16.10
2008,10,01,17,31,16.10
2008,10,01,17,32,16.10
2008,10,01,17,33,16.10
2008,10,01,17,34,16.10
2008,10,01,17,35,16.10
2008,10,01,17,36,16.00
2008,10,01,17,37,15.90
2008,10,01,17,38,15.90
2008,10,01,17,39,15.90
2008,10,01,17,40,15.90
2008,10,01,17,41,15.90
2008,10,01,17,42,15.90
2008,10,01,17,43,15.90
2008,10,01,17,44,15.90
2008,10,01,17,45,15.90
2008,10,01,17,46,15.90
2008,10,01,17,47,15.90
2008,10,01,17,48,15.90
2008,10,01,17,49,15.80
2008,10,01,17,50,15.90
2008,10,01,17,51,15.80
2008,10,01,17,52,15.80
2008,10,01,17,53,15.80
2008,10,01,17,54,15.80
2008,10,01,17,55,15.80
2008,10,01,17,56,15.70
2008,10,01,17,57,15.60
2008,10,01,17,58,15.50
2008,10,01,17,59,15.50
2008,10,01,18,00,15.40
2008,10,01,18,01,15.40
2008,10,01,18,02,15.30
2008,10,01,18,03,15.30
2008,10,01,18,04,15.30
2008,10,01,18,05,15.30
2008,10,01,18,06,15.20
2008,10,01,18,07,15.20
2008,10,01,18,08,15.20
2008,10,01,18,09,15.20
2008,10,01,18,10,15.20
2008,10,01,18,11,15.20
2008,10,01,18,12,15.20
2008,10,01,18,13,15.20
2008,10,01,18,14,15.20
2008,10,01,18,15,15.20
2008,10,01,18,16,15.10
2008,10,01,18,17,15.10
2008,10,01,18,18,15.10
2008,10,01,18,19,15.10
2008,10,01,18,20,15.10